Regional Weather Roundup
Issued by NWS Upton, NY

Current Version | Previous Version | Text Only | Print | Product List | Glossary Off
Versions: 1 2 3 4 5 6 7 8 9 10 11 12 13 14 15 16 17 18 19 20 21 22 23 24 25 26 27 28 29 30 31 32 33 34 35 36 37 38 39 40 41 42 43 44 45 46 47 48 49 50
000 ASUS41 KOKX 211105 RWROKX Regional Weather Roundup National Weather Service New York NY 600 AM EST WED FEB 21 2018 Note: "FAIR" indicates few or no clouds below 12,000 feet with no significant weather and/or obstructions to visibility. NYZ071-072-176-178-NJZ106-104-211200- New York City Metro Area CITY SKY/WX TMP DP RH WIND PRES REMARKS Central Park CLOUDY 61 58 90 VRB6 30.31S Bronx Bot Gard N/A 50 48 93 SE1 30.31S Bronx Lehman C N/A 55 54 94 S2 N/A LaGuardia Arpt CLOUDY 53 50 89 S8 30.29F Queens College N/A 50 48 93 S7 N/A Kennedy Intl FOG 46 46 100 S6 30.32S VSB 1/8 Breezy Point N/A 43 N/A N/A NE2 N/A Brooklyn Coll N/A 46 46 100 CALM N/A Staten Island N/A 59 57 94 SW3 N/A Newark/Liberty CLOUDY 61 59 93 SW15 30.29S Teterboro CLOUDY 56 54 93 CALM 30.28S FOG $$ NYZ177-179-078>081-211200- Long Island New York CITY SKY/WX TMP DP RH WIND PRES REMARKS Jones Beach N/A 43 N/A N/A S2 N/A Wantagh N/A 45 45 100 S5 N/A Hempstead N/A 48 46 93 S1 30.34F Matinecock Pt N/A 57 N/A N/A SW8 N/A Farmingdale FOG 47 47 100 S6 30.31F VSB 1/4 MacArthur/ISP FOG 48 48 100 SW13 30.31S VSB 1/8 Shirley FOG 50 50 100 SW12 30.32S VSB 1/2 Mt Sinai Harb N/A N/A N/A N/A SW6G12 N/A Westhampton FOG 50 50 100 SW13G18 30.32F VSB 1/4 East Hampton FOG 50 50 100 SW9G18 30.30F VSB 1/2 Southold N/A 55 55 100 SW12 N/A Montauk N/A 51 51 100 SW8 30.32F $$ NYZ052-065-067-211200- Hudson Valley CITY SKY/WX TMP DP RH WIND PRES REMARKS White Plains FOG 53 53 100 CALM 30.28S VSB 1/4 Larchmont Harb N/A 48 N/A N/A SW9 N/A Croton On Huds N/A 55 N/A N/A SE6 N/A Somers N/A 57 57 100 SW8 N/A Brewster N/A 54 54 100 S3 N/A Newburgh MOCLDY 54 54 100 CALM 30.27 Montgomery CLOUDY 42 41 96 CALM 30.24S Otisville N/A 54 54 100 SW3 N/A Warwick N/A 55 55 100 SW1 N/A Suffern N/A 57 57 100 SW5 N/A Poughkeepsie CLOUDY 45 42 89 CALM 30.25S Albany FAIR 56 52 86 S13 30.18S $$ NJZ001-105-106-008-010-013-015-019>022-104-211200- New Jersey CITY SKY/WX TMP DP RH WIND PRES REMARKS Newark/Liberty CLOUDY 61 59 93 SW15 30.29S Teterboro CLOUDY 56 54 93 CALM 30.28S FOG Caldwell CLOUDY 60 59 96 SW8 30.29S Somerville CLOUDY 59 59 100 CALM 30.28S Linden CLOUDY 62 58 89 W9 30.30S Perth Amboy N/A 57 N/A N/A W7 N/A Sussex CLOUDY 53 53 100 SW6 30.27S FOG Andover N/A 56 56 100 SW6 30.29R Trenton CLOUDY 60 59 96 SW5 30.31S Millville FOG 56 55 97 VRB5 30.34S VSB 1 Atlantic City FOG 53 53 100 S7 30.35R VSB 1/4 Wrightstown MOCLDY 63 61 94 SW10 30.29 Toms River CLOUDY 59 58 96 SW7 30.33S Belmar MOCLDY 60 59 96 SW12 30.32S $$ PAZ047>061-062-071-211200- Eastern Pennsylvania CITY SKY/WX TMP DP RH WIND PRES REMARKS Philadelphia CLOUDY 54 54 100 CALM 30.32S FOG Allentown FOG 43 41 93 CALM 30.30R VSB 1/4 Scranton FAIR 54 53 97 CALM 30.25S $$ CTZ002-004>006-009-010-012-RIZ004-006-007-MAZ004-011-015-211200- Southern New England In CT CITY SKY/WX TMP DP RH WIND PRES REMARKS Bradley Intl FOG 52 52 100 S9 30.25F VSB 1/4 Hartford CLOUDY 54 54 100 S7 30.26F FOG Danbury CLOUDY 58 57 97 SW7 30.28F Wtrbury/Oxford LGT RAIN 55 55 100 SW5 30.28F VSB 1/2 Norwalk Harbor N/A 48 N/A N/A SW8 N/A Bridgeport FOG 49 47 93 SW6 30.29S VSB 1/4 Meriden FOG 51 51 100 S7 30.27F VSB 1/2 New Haven FOG 47 45 93 S3 30.28F VSB 1/2 Chester FOG 54 54 100 SW8 30.28F VSB 3/4 Groton FOG 47 46 97 CALM 30.29F VSB 1/4 Willimantic CLOUDY 52 51 97 S3 30.27F FOG In RI CITY SKY/WX TMP DP RH WIND PRES REMARKS Providence MOCLDY 58 56 93 SW9 30.27F Block Island LGT RAIN 45 45 100 SW14 30.32R VSB 1/2 Westerly FOG 50 50 100 CALM 30.31F VSB 1/4 In MA CITY SKY/WX TMP DP RH WIND PRES REMARKS Boston FAIR 53 52 96 S13 30.21F Worcester FOG 53 53 100 SW20 30.22F VSB 1 Westfield FOG 48 48 100 SW5 30.24F VSB 1/4 Provincetown FOG 46 45 96 S12 30.26F VSB 1/2 Nantucket FOG 46 46 100 SW14 30.31F VSB 1/4 $$ ANZ330-335-338-340-345-350-353-355-211200- Coastal Marine Observations STATION/POSITION TIME SKY/WX TEMP WIND PRES VSBY WAVE AIR SEA DIR/SP/G HT/PER (UTC) (F) (DEG/KT/KT) (MB) (MI) (FT/S) NY Harb Entrance 1050 45 41 200/ 14/ 16 1026.1 4/ 6 20 S Fire Island 1050 47 43 220/ 17/ 19 1026.9 5/ 6 15 E Barnegat Li 1030 41 N/A 4/13 Hudson Canyon 1050 52 47 210/ 17/ 19 1028.1 4/ 5 Kings Point 1030 50 38 200/ 9/ 10 1026.6 Execution Rocks NOT AVBL Western LI Sound NOT AVBL Central LI Sound 1000 44 60/ 2/ 2 N/A 1 Robbins Reef 1030 52 180/ 5/ 8 1026.5 $$ >>>>>>>>>>>>>>>>>>>>>>>>>>>> KEY <<<<<<<<<<<<<<<<<<<<<<<<<<< > < > SKY/WX - Sky Condition/Present Weather < > TMP - Temperature in Fahrenheit < > DP - Dew Point in Fahrenheit < > RH - Relative Humidity in Percent < > WIND - Direction (from) and Speed in MPH < > PRES - Mean Sea Level Pressure (inches of Hg) < > WCI - Wind Chill Index < > VSB - Visibility in Miles < > HX - Heat Index < > TC - Temperature in Celsius < > VRB - Varibale Wind Direction < > < >>>>>>>>>>>>>>>>>>>>>>>>>>>> KEY <<<<<<<<<<<<<<<<<<<<<<<<<<<

USA.gov is the U.S. government's official web portal to all federal, state and local government web resources and services.